Weather observations for the past three days for
Point Hope, Point Hope Airport
Imperial (Metric)
Date Time (akdt) Wind (mph) Vis. (mi.) Weather Sky Cond. Temperature (ºF) Relative Humidity Wind Chill (°F) Heat Index (°F) Pressure Precipitation (in)
Air Dwpt 6 hour altimeter (in) sea level (mb) 1 hr 3 hr 6 hr
Max. Min.
15 03:56 N 20 10.00 Overcast BKN020 OVC080 39.9 37.9 41 37.9 93% 31 29.55 1000.4
15 02:56 N 22 10.00 Mostly Cloudy and Breezy BKN038 BKN120 39.9 39 97% 31 29.54 1000.1
15 01:56 N 17 10.00 Overcast OVC036 39.9 39 97% 32 29.54 1000.2
15 00:56 N 14 9.00 Overcast BKN042 OVC055 39.9 39 97% 33 29.53 999.9
14 23:56 N 18 6.00 Fog/Mist OVC044 39 37.9 96% 30 29.52 999.4
14 22:56 N 22 10.00 Light Rain and Breezy FEW002 BKN055 OVC070 39 37.9 96% 29 29.5 999.0
14 21:56 N 24 3.00 Light Rain Fog/Mist and Breezy OVC002 37.9 37.9 42.1 37.9 100% 28 29.49 998.6
14 20:56 N 25 1.50 Fog/Mist and Breezy OVC002 37.9 37 97% 27 29.49 998.6
14 19:56 N 26 4.00 Fog/Mist and Windy OVC002 37.9 37.9 100% 27 29.5 998.7
14 18:56 N 23 8.00 Light Rain and Breezy BKN004 OVC050 39 37.9 96% 29 29.5 998.7
14 17:56 N 23 8.00 Light Rain and Breezy FEW036 SCT047 BKN080 39.9 39 97% 30 29.48 998.3
14 15:56 N 20 10.00 Mostly Cloudy BKN080 41 39 42.1 39 93% 33 29.48 998.2
14 14:56 N 22 10.00 Mostly Cloudy and Breezy BKN070 41 39 93% 32 29.48 998.2
14 13:56 N 22 10.00 Fair and Breezy CLR 41 37.9 89% 32 29.48 998.1
14 12:56 N 24 10.00 Fair and Breezy CLR 39.9 37.9 93% 30 29.47 997.9
14 11:56 N 17 10.00 Partly Cloudy SCT002 39.9 37.9 93% 32 29.49 998.5
14 10:56 N 26 10.00 Overcast and Windy OVC002 39 37 93% 28 29.49 998.5
14 09:56 N 24 10.00 Overcast and Breezy OVC002 39 37 39.9 37.9 93% 29 29.49 998.6 0.01
14 07:56 N 21 4.00 Fog/Mist and Breezy OVC002 37.9 37.9 100% 28 29.51 999.3
14 06:56 N 22 1.25 Fog/Mist and Breezy OVC002 37.9 37.9 100% 28 29.52 999.4 0.01
14 00:56 N 13 10.00 Overcast OVC080 42.1 39.9 92% 36 29.56 1000.9
13 23:56 N 13 10.00 Overcast OVC080 43 41 93% 37 29.56 1000.9
13 22:56 N 14 10.00 Overcast OVC070 42.1 39.9 92% 35 29.56 1000.9
13 21:56 N 13 10.00 A Few Clouds FEW060 43 41 53.1 43 93% 37 29.56 1000.7
13 20:56 N 12 10.00 Light Rain OVC070 44.1 43 96% 39 29.55 1000.7
13 19:56 N 12 10.00 Overcast OVC080 46.9 45 93% 42 29.55 1000.7
13 18:56 NE 13 10.00 Mostly Cloudy SCT070 BKN090 50 46.9 89% 46 29.55 1000.6
13 17:56 NE 15 10.00 Mostly Cloudy BKN080 50 46.9 89% 45 29.55 1000.6
13 16:56 NE 15 10.00 Overcast FEW020 BKN060 OVC075 52 48.9 89% 29.55 1000.4
13 15:56 NE 14 10.00 Light Rain BKN015 BKN028 OVC038 48.9 48 55 46 97% 44 29.55 1000.5 0.01 0.02
13 14:56 NE 13 9.00 Light Rain FEW003 BKN023 OVC055 46.9 46 97% 42 29.54 1000.2
13 13:56 N 13 10.00 Partly Cloudy FEW034 SCT060 48 46 93% 43 29.53 999.9
13 12:56 NE 7 10.00 Mostly Cloudy FEW003 BKN034 BKN046 51.1 48.9 92% 29.53 999.8 0.01
13 11:56 E 9 10.00 Partly Cloudy SCT065 55 52 90% 29.52 999.5
13 10:56 E 10 10.00 Light Rain FEW042 BKN060 OVC070 52 51.1 97% 29.52 999.5 0.01
13 09:56 E 10 10.00 Light Rain BKN055 OVC070 50 48.9 53.1 43 96% 46 29.51 999.2 0.1
13 08:56 SE 12 10.00 Overcast BKN048 OVC055 51.1 48.9 92% 29.5 999.0
13 07:56 SE 10 10.00 Light Rain BKN046 OVC070 53.1 50 89% 29.5 998.9 0.02
13 06:56 E 7 7.00 Light Rain BKN026 BKN031 OVC075 48 46.9 96% 45 29.5 998.8 0.05 0.08
13 05:56 NE 8 7.00 Light Rain OVC070 46.9 45 93% 44 29.49 998.4 0.03
13 04:56 NE 8 10.00 Light Rain OVC070 44.1 43 96% 40 29.48 998.1
13 03:56 N 10 10.00 Light Rain OVC080 43 42.1 50 43 97% 38 29.49 998.5
13 02:56 N 8 10.00 Partly Cloudy SCT085 45 42.1 90% 41 29.51 999.2
13 01:56 SE 9 10.00 Mostly Cloudy FEW020 SCT060 BKN075 48.9 45 86% 45 29.55 1000.4
13 00:56 N 10 9.00 A Few Clouds FEW100 45 42.1 90% 40 29.54 1000.1
12 23:56 N 10 10.00 Fair CLR 45 41 86% 40 29.56 1000.8
12 22:56 N 10 9.00 Fair CLR 45 42.1 90% 40 29.56 1000.8
12 21:56 N 12 10.00 Mostly Cloudy BKN090 46 42.1 53.1 45 86% 41 29.58 1001.7
12 20:56 N 8 10.00 Mostly Cloudy BKN080 BKN120 46 43 89% 42 29.6 1002.4
12 19:56 N 8 10.00 Mostly Cloudy BKN095 46.9 42.1 83% 44 29.62 1003.0
12 18:56 N 5 10.00 Partly Cloudy SCT095 48.9 44.1 83% 48 29.64 1003.7
12 17:56 N 7 10.00 Fair CLR 48.9 43 80% 46 29.66 1004.1
12 16:56 NE 9 10.00 Fair CLR 46.9 42.1 83% 43 29.67 1004.6
12 15:56 N 9 10.00 Fair CLR 46 42.1 54 46 86% 42 29.7 1005.5
12 14:56 N 12 10.00 A Few Clouds FEW110 46.9 43 86% 42 29.71 1005.8
12 13:56 N 9 10.00 Fair CLR 54 46.9 77% 29.72 1006.4
12 12:56 N 10 10.00 A Few Clouds FEW110 53.1 46.9 80% 29.74 1006.8
12 11:56 N 7 10.00 Partly Cloudy SCT120 54 46.9 77% 29.75 1007.2
12 10:56 N 8 9.00 Partly Cloudy SCT120 51.1 45 80% 29.76 1007.5
12 09:56 NE 6 10.00 Fair CLR 50 46 50 44.1 86% 48 29.77 1007.9
12 08:56 NE 8 10.00 Overcast OVC120 46 43 89% 42 29.78 1008.2
12 07:56 NE 7 10.00 A Few Clouds FEW120 44.1 41 89% 41 29.79 1008.7
12 06:56 NE 7 10.00 Fair CLR 46.9 44.1 90% 44 29.8 1009.1
12 05:56 NE 7 10.00 Fair CLR 46.9 44.1 90% 44 29.81 1009.4
12 04:56 NE 8 10.00 Partly Cloudy SCT055 50 46 86% 47 29.82 1009.6
Date Time (akdt) Wind (mph) Vis. (mi.) Weather Sky Cond. Air Dwpt Max. Min. Relative Humidity Wind Chill (°F) Heat Index (°F) altimeter (in) sea level (mb) 1 hr 3 hr 6 hr
6 hour
Temperature (ºF) Pressure Precipitation (in)